[[{"header":{"parameterUnit":"m.s-1","parameterCategory":1,"la1":30.2991,"la2":30.254,"lo1":-89.0895,"lo2":-89.0444,"dy":0.0017,"dx":0.0017,"nx":28,"ny":28,"refTime":"2023-08-05T03:00:00:Z","depth":0,"parameterNumber":2,"parameterNumberName":"U-component_of_WINDS"},"data":[0,0,0,0,0,0,0,0,0,0,0,0,0,0,0,0,0,0,0,0,0,0,0,0,0,0,0,0,0,0,0,0,0,0,0,0,0,0,0,0,0,0,0,0,0,0,0,0,0,0,0,0,0,0,0,0,0,0,3.7982,3.7983,0,3.8052,3.8053,3.8053,3.7965,3.7962,3.7959,3.7956,3.8028,3.8033,3.8038,0,0,0,0,0,0,0,0,0,0,0,0,0,3.7772,3.7776,3.7982,3.7983,3.7984,3.8052,3.8053,3.8054,3.7966,3.7962,3.7958,3.7954,3.8027,3.8032,3.8038,0,0,0,0,0,0,0,0,0,0,0,0,0,3.7855,3.7778,3.7982,3.7948,3.7946,3.8051,3.8053,3.8054,3.7967,3.7962,3.7957,3.7952,3.8025,3.8032,3.8039,3.8182,0,0,3.8062,3.8065,0,0,0,0,0,0,0,0,3.785,3.7862,3.7952,3.7951,3.7948,3.7995,3.8005,3.8097,3.7968,3.7959,3.7956,3.795,3.8021,3.8028,3.8052,3.8185,3.8188,3.8062,3.8067,3.807,3.8072,0,0,0,0,0,0,0,3.7844,3.7859,3.801,3.7954,3.7951,3.7929,3.7936,3.8022,3.8016,3.7959,3.7953,3.7962,3.8019,3.8045,3.8053,3.8189,3.8062,3.8069,3.8073,3.8076,3.8437,3.8442,0,0,0,0,0,0,3.7843,3.7855,3.8007,3.8012,3.7886,3.7937,3.7944,3.7985,3.8015,3.8015,3.7966,3.7958,3.8035,3.8045,3.8055,3.822,3.807,3.8077,3.8081,3.8432,3.8439,3.8444,0,0,0,0,0,0,3.7839,3.7857,3.8005,3.7932,3.7949,3.7946,3.7992,3.7989,3.8015,3.802,3.8019,3.7994,3.8032,3.8045,3.815,3.8222,3.808,3.8087,3.8426,3.8434,3.8441,3.8554,0,0,0,0,0,0,3.7833,3.7856,3.7911,3.7934,3.7953,3.8099,3.7997,3.7994,3.8028,3.8017,3.8046,3.8046,3.8029,3.8139,3.8157,3.823,3.8093,3.842,3.843,3.8439,3.8544,3.8565,3.8583,0,0,0,0,0,3.7826,3.7941,3.7914,3.7933,3.8021,3.8103,3.8114,3.8091,3.8034,3.8088,3.8091,3.8045,3.8212,3.8151,3.817,3.8246,3.8415,3.8427,3.8438,3.8535,3.8561,3.8582,0,0,0,0,0,0,3.7928,3.7944,3.7914,3.804,3.8071,3.8088,3.8156,3.812,3.8167,3.8156,3.8126,3.8133,3.8244,3.8256,3.8187,3.8383,3.8304,3.832,3.8371,3.8395,3.8414,3.8408,3.8099,0,0,0,0,0,3.7966,3.8031,3.8041,3.8151,3.8168,3.816,3.8194,3.8174,3.8204,3.8217,3.8228,3.826,3.8318,3.8358,3.8413,3.8546,3.8549,3.8607,3.8627,3.8643,3.8656,3.8723,3.8748,3.8482,3.8482,3.8482,0,0,3.8043,3.806,3.8103,3.8172,3.8193,3.826,3.8171,3.8247,3.8296,3.8229,3.8327,3.8336,3.8369,3.8488,3.854,3.8501,3.873,3.8657,3.867,3.8675,3.8738,3.8763,3.8785,3.849,3.8489,3.8487,0,0,3.8218,3.8239,3.8331,3.8353,3.8386,3.8379,3.8401,3.8424,3.8427,3.8525,3.8474,3.8533,3.8636,3.866,3.8686,3.8867,3.8825,3.8886,3.8986,3.9052,3.9073,3.9092,3.9153,3.9175,3.89,3.89,3.89,0,3.8311,3.841,3.8383,3.8461,3.8491,3.8433,3.8524,3.8548,3.8598,3.862,3.8575,3.87,3.8719,3.884,3.8883,3.8908,3.893,3.8882,3.9072,3.9091,3.9107,3.9165,3.9189,3.8907,3.8906,3.8906,3.8905,0,3.852,3.8589,3.866,3.8707,3.8746,3.8831,3.8815,3.8858,3.8834,3.8831,3.893,3.895,3.9005,3.9033,3.9012,3.9151,3.9125,3.9077,3.8996,3.914,3.9193,3.9216,3.8917,3.8914,3.8912,3.8911,0,0,3.8762,3.8791,3.8817,3.8836,3.8866,3.8919,3.9001,3.9054,3.9089,3.9125,3.9191,3.9278,3.9233,3.9262,3.9242,3.9301,3.9438,3.9245,3.9245,3.9277,3.9589,3.9622,3.9649,3.9412,3.9416,3.9419,3.9585,0,3.8933,3.9073,3.905,3.9185,3.9246,3.9191,3.9261,3.9287,3.9286,3.9338,3.9338,3.9398,3.9336,3.9353,3.9408,3.941,3.95,3.9398,3.947,3.9473,3.9461,3.9677,3.9714,3.9869,3.9606,3.961,3.9612,0,3.9153,3.9194,3.9335,3.9352,3.9377,3.9441,3.9486,3.9537,3.9565,3.956,3.9592,3.956,3.9639,3.9559,3.9666,3.9597,3.9626,3.9631,3.9636,3.964,3.9549,3.9684,3.9918,3.994,3.9646,3.9643,3.9641,0,3.931,3.9402,3.9496,3.9515,3.9539,3.9584,3.9596,3.9619,3.9651,3.9691,3.9711,3.9761,3.9787,3.9826,3.9807,3.9751,3.9917,3.9836,3.9913,3.9914,3.9949,3.9946,4.0188,3.9973,3.9972,3.9972,3.9972,0,3.9503,3.959,3.9567,3.9625,3.972,3.9692,3.9787,3.9793,3.9813,3.987,3.9826,3.988,3.9855,3.9907,3.9894,3.9982,3.9996,3.9993,3.9987,3.9995,3.9995,4.0011,3.9999,3.9978,3.9977,3.9976,3.9975,0,3.9694,3.9682,3.9781,3.9795,3.98,3.9869,3.9881,3.9934,3.993,4.0002,4.0018,4.0011,4.007,4.0056,4.0121,4.0112,4.0223,4.0206,4.0213,4.0208,4.0284,4.0276,4.0543,4.0575,4.0342,4.0344,4.0346,0,3.9816,3.9881,3.9901,3.9936,3.9951,4.0008,4.004,4.0015,4.005,4.0084,4.0133,4.0188,4.023,4.0327,4.0327,4.0376,4.0358,4.0448,4.0365,4.0369,4.0355,4.035,4.0355,4.0464,4.0466,4.0469,4.047,0,4.0033,4.0023,4.0071,4.0116,4.0155,4.019,4.0221,4.0252,4.0229,4.0271,4.0329,4.0362,4.0427,4.0481,4.0526,4.0537,4.05,4.0497,4.0516,4.0523,4.0523,4.0521,4.0254,4.049,4.0488,4.0487,4.0486,4.0485,4.019,4.0244,4.0266,4.032,4.034,4.0369,4.0418,4.0419,4.0468,4.0518,4.0501,4.0567,4.059,4.0646,4.0663,4.0714,4.0679,4.0709,4.0716,4.0723,4.0731,4.0518,4.0722,4.0722,4.0721,4.0721,4.072,0,4.0401,4.0412,4.0462,4.0505,4.0547,4.0508,4.0539,4.0576,4.0635,4.066,4.0701,4.0767,4.0819,4.0823,4.0871,4.0911,4.0894,4.0924,4.0919,4.0922,4.076,4.0737,4.0936,4.0936,4.0936,4.0936,4.0936,4.0936,4.0516,4.0604,4.0596,4.0693,4.0703,4.0767,4.0787,4.0813,4.0832,4.0907,4.0949,4.0952,4.0967,4.1015,4.106,4.106,4.1078,4.1114,4.1107,4.0955,4.0934,4.0913,4.089,4.1119,4.1119,4.1263,4.1264,4.1266]},{"header":{"parameterUnit":"m.s-1","parameterCategory":1,"la1":30.2991,"la2":30.254,"lo1":-89.0895,"lo2":-89.0444,"dy":0.0017,"dx":0.0017,"nx":28,"ny":28,"refTime":"2023-08-05T03:00:00:Z","depth":0,"parameterNumber":3,"parameterNumberName":"V-component_of_WINDS"},"data":[0,0,0,0,0,0,0,0,0,0,0,0,0,0,0,0,0,0,0,0,0,0,0,0,0,0,0,0,0,0,0,0,0,0,0,0,0,0,0,0,0,0,0,0,0,0,0,0,0,0,0,0,0,0,0,0,0,0,6.8399,6.8399,0,6.8453,6.8453,6.8454,6.8386,6.8383,6.8381,6.8379,6.8428,6.8432,6.8435,0,0,0,0,0,0,0,0,0,0,0,0,0,6.8231,6.8234,6.8399,6.84,6.84,6.8453,6.8453,6.8454,6.8386,6.8383,6.838,6.8377,6.8427,6.8431,6.8436,0,0,0,0,0,0,0,0,0,0,0,0,0,6.8296,6.8235,6.8399,6.8373,6.8371,6.8452,6.8453,6.8454,6.8387,6.8383,6.8379,6.8376,6.8426,6.8431,6.8436,6.8544,0,0,6.8453,6.8455,0,0,0,0,0,0,0,0,6.8292,6.8302,6.8376,6.8375,6.8373,6.8409,6.8412,6.8484,6.8388,6.8381,6.8379,6.8374,6.8424,6.843,6.8448,6.8546,6.8548,6.8453,6.8457,6.8459,6.8461,0,0,0,0,0,0,0,6.8288,6.8299,6.842,6.8377,6.8375,6.8356,6.8361,6.8425,6.8422,6.8381,6.8376,6.8384,6.8423,6.8443,6.8448,6.8549,6.8453,6.8458,6.8461,6.8464,6.8735,6.8738,0,0,0,0,0,0,6.8287,6.8296,6.8418,6.8421,6.8323,6.8362,6.8368,6.8401,6.8422,6.8421,6.8387,6.8381,6.8435,6.8442,6.845,6.8574,6.8459,6.8464,6.8467,6.8731,6.8735,6.874,0,0,0,0,0,0,6.8284,6.8299,6.8416,6.8358,6.8371,6.8369,6.8407,6.8404,6.8424,6.8426,6.8425,6.8408,6.8433,6.8442,6.8521,6.8575,6.8467,6.8471,6.8726,6.8732,6.8738,6.8826,0,0,0,0,0,0,6.8279,6.8298,6.8341,6.8359,6.8374,6.8488,6.841,6.8408,6.8434,6.8426,6.8446,6.8445,6.843,6.8513,6.8526,6.8581,6.8476,6.8721,6.8729,6.8736,6.8818,6.8834,6.8848,0,0,0,0,0,6.8274,6.8363,6.8343,6.8358,6.8428,6.8491,6.85,6.8482,6.8439,6.848,6.8481,6.8445,6.8568,6.8521,6.8536,6.8593,6.8717,6.8727,6.8735,6.8812,6.8831,6.8848,0,0,0,0,0,0,6.835,6.8365,6.8343,6.8442,6.8466,6.848,6.8532,6.8504,6.854,6.8531,6.8506,6.8511,6.8594,6.8602,6.855,6.8696,6.8635,6.8647,6.8688,6.8707,6.8722,6.8717,6.848,0,0,0,0,0,6.8378,6.8431,6.844,6.8526,6.854,6.8534,6.8561,6.8545,6.8569,6.8578,6.8585,6.8607,6.865,6.8679,6.872,6.882,6.8821,6.8866,6.8881,6.8893,6.8903,6.8953,6.8972,6.8769,6.8769,6.8769,0,0,6.8437,6.8452,6.8486,6.8542,6.8559,6.8611,6.8543,6.8601,6.8639,6.8586,6.866,6.8666,6.8689,6.8778,6.8818,6.8787,6.896,6.8904,6.8914,6.8917,6.8964,6.8983,6.9,6.8775,6.8774,6.8773,0,0,6.857,6.8589,6.866,6.8679,6.8706,6.8701,6.8718,6.8736,6.8738,6.8813,6.8774,6.8817,6.8893,6.891,6.8929,6.9067,6.9033,6.9081,6.9158,6.9207,6.9223,6.9237,6.9283,6.93,6.9091,6.9091,6.9092,0,6.8639,6.8718,6.87,6.8761,6.8785,6.8742,6.8812,6.8831,6.8869,6.8885,6.8851,6.8944,6.8956,6.9047,6.9081,6.9098,6.9115,6.9077,6.9222,6.9236,6.9249,6.9293,6.931,6.9097,6.9096,6.9096,6.9095,0,6.88,6.8855,6.891,6.8948,6.8979,6.9045,6.9034,6.9067,6.9048,6.9046,6.9121,6.9135,6.9175,6.9196,6.9179,6.9284,6.9264,6.9227,6.9164,6.9274,6.9314,6.9331,6.9104,6.9102,6.9101,6.91,0,0,6.8982,6.901,6.903,6.9045,6.9071,6.9112,6.9174,6.9216,6.9243,6.927,6.932,6.9385,6.935,6.9371,6.9355,6.9399,6.9503,6.9355,6.9355,6.938,6.9616,6.9642,6.9662,6.9482,6.9485,6.9488,6.9613,0,6.9113,6.9222,6.9207,6.9311,6.936,6.9319,6.9372,6.9393,6.9393,6.9432,6.9431,6.9476,6.9429,6.944,6.9482,6.9482,6.955,6.9473,6.9525,6.9527,6.9518,6.9683,6.9711,6.9829,6.9629,6.9632,6.9634,0,6.928,6.9314,6.9424,6.9439,6.9459,6.9508,6.9543,6.9583,6.9604,6.96,6.9624,6.9599,6.9659,6.9597,6.9677,6.9625,6.9645,6.9648,6.9652,6.9654,6.9585,6.9687,6.9866,6.9882,6.9659,6.9657,6.9655,0,6.9398,6.9471,6.9545,6.956,6.9582,6.9616,6.9627,6.9644,6.9669,6.97,6.9715,6.9752,6.9771,6.9799,6.9784,6.9741,6.9865,6.9803,6.9861,6.9862,6.9887,6.9885,7.0069,6.9906,6.9905,6.9905,6.9905,0,6.9544,6.9611,6.9598,6.9643,6.9717,6.9698,6.977,6.9775,6.9791,6.9835,6.9802,6.9843,6.9822,6.9861,6.985,6.9915,6.9925,6.9922,6.9917,6.9923,6.9923,6.9934,6.9925,6.991,6.9909,6.9908,6.9907,0,6.9687,6.9681,6.9758,6.9772,6.9777,6.983,6.9841,6.9882,6.9879,6.9934,6.9946,6.9941,6.9985,6.9974,7.0022,7.0014,7.0096,7.0083,7.0089,7.0085,7.0143,7.0136,7.0338,7.0362,7.0186,7.0187,7.0189,0,6.9779,6.983,6.9849,6.9877,6.989,6.9934,6.996,6.9942,6.997,6.9997,7.0034,7.0075,7.0107,7.0179,7.0178,7.0214,7.0199,7.0267,7.0204,7.0207,7.0196,7.0192,7.0196,7.0279,7.0281,7.0283,7.0284,0,6.9942,6.9936,6.9975,7.0012,7.0043,7.0072,7.0097,7.012,7.0105,7.0137,7.0182,7.0207,7.0255,7.0296,7.0328,7.0336,7.0306,7.0304,7.0319,7.0324,7.0324,7.0322,7.0121,7.0299,7.0297,7.0296,7.0296,7.0295,7.006,7.0102,7.0122,7.0165,7.0182,7.0206,7.0245,7.0247,7.0285,7.0323,7.0311,7.0361,7.0379,7.0419,7.0432,7.0469,7.0443,7.0465,7.047,7.0475,7.0481,7.0321,7.0476,7.0475,7.0475,7.0474,7.0474,0,7.0218,7.0229,7.0269,7.0305,7.0339,7.031,7.0336,7.0365,7.041,7.043,7.0462,7.0512,7.0551,7.0554,7.0589,7.0619,7.0606,7.0628,7.0624,7.0626,7.0504,7.0486,7.0638,7.0638,7.0638,7.0638,7.0638,7.0638,7.0305,7.0374,7.037,7.0446,7.0456,7.0506,7.0523,7.0543,7.0558,7.0617,7.0649,7.0651,7.0663,7.0699,7.0732,7.0731,7.0745,7.0772,7.0766,7.0651,7.0635,7.0619,7.0602,7.0776,7.0776,7.0884,7.0885,7.0886]}]]